map of YMS home
YMS - Airport
Location
City:  Yurimaguas, Loreto, Perú
Name:Moisés Benzaquén Rengifo Airport
ICAO:SPMS
IATA:YMS

Details
Type:Airport (Aerodrome, Airfield)
Use:Public/Civil
Latitude:5°53'37"S (-5.893610)
Longitude:76°07'05"W (-76.118055)
Elevation:587 ft (179 m)
Variation:4.00°W (WMM2015 magnetic declination)
-0.17° annual change
Runways:1
Longest:5906 × 98 ft (1800 × 30 m), paved

Time
Time Zone:UTC-5
Local Time:

Weather
METAR:SPMS 172300Z 26005KT 9999 FEW020 30/22 Q1010 RMK BIRD HAZARD RWY 09/27 PP000
TAF:SPMS 171700Z 1718/1818 06005KT 9999 FEW020 TX35/1719Z TN23/1811Z
BECMG 1719/1720 CAVOK
TEMPO 1809/1812 00000KT 5000 BR BKN015 SCT080

Related Locations
Nearby:
Farthest:RDN: 12388 mi / 19937 km
Redang [Redang Airport], Redang Island (Pulau Redang), 11, MY

Find:

   beyond  
but within

Other Information
Maps:
NOTAMs:
Links:
Sources:

  
flag of Perú
flag of Loreto
  

Sectional Chart

Flight Planning
at skyvector.com

Satellite Image

Google Maps Satellite view

 

Copyright © 2004-2017 Karl L. Swartz. All rights reserved.
The Great Circle Mapper name and logo are trademarks of the Great Circle Mapper.
All other trademarks mentioned herein belong to their respective owners.
Please see credits for attibutions and further copyright information.

  Follow gcmap on Facebook Follow gcmap on Twitter Follow gcmap on Google+ GCmap on LinkedIn

hCard Microformat

Geo Microformat